RYR99HR LRCL-EIDW

Flight info

Callsign RYR99HR
Flight time 3h 14m
Altitude 38000
Route ELROM DCT NARKA DCT AMRAX DCT ODNEM DCT ELMEK DCT VEXIL DCT KATCE DCT RAVLO Y70 OTBED L60 PENIL UL28 LELDO M145 BAGSO BAGSO4L
Aircraft B38M/M-SDE1FGHILORVWXY/HB1

Departure

Time 2026-04-26 15:51
Airport Avram Iancu Cluj International Airport (LRCL)

Arrival

Time 2026-04-26 19:05
Airport Dublin Airport (EIDW)
Time Latitude Longitude Altitude Speed Heading
2026-04-26 15:32 46.78486 23.69441 1028 ft 0 kts 168°
2026-04-26 15:47 46.78460 23.69411 1028 ft 5 kts 275°
2026-04-26 15:47 46.78522 23.69344 1027 ft 7 kts 344°
2026-04-26 15:47 46.78575 23.69321 1026 ft 9 kts 343°
2026-04-26 15:48 46.78645 23.69285 1024 ft 13 kts 340°
2026-04-26 15:48 46.78744 23.69239 1029 ft 17 kts 342°
2026-04-26 15:48 46.78860 23.69185 1026 ft 16 kts 346°
2026-04-26 15:48 46.78935 23.69255 1028 ft 14 kts 72°
2026-04-26 15:49 46.78965 23.69399 1029 ft 16 kts 75°
2026-04-26 15:49 46.78992 23.69559 1026 ft 17 kts 76°
2026-04-26 15:49 46.79010 23.69604 1025 ft 0 kts 353°
2026-04-26 15:49 46.79018 23.69579 1028 ft 7 kts 265°
2026-04-26 15:50 46.78986 23.69470 1029 ft 15 kts 252°
2026-04-26 15:50 46.78926 23.69201 1029 ft 61 kts 252°
2026-04-26 15:50 46.78709 23.68239 1033 ft 135 kts 252°
2026-04-26 15:50 46.78358 23.66676 1199 ft 183 kts 253°
2026-04-26 15:51 46.77897 23.64765 1755 ft 216 kts 254°
2026-04-26 15:51 46.77324 23.62536 2153 ft 253 kts 254°
2026-04-26 15:51 46.76711 23.60081 3217 ft 251 kts 255°
2026-04-26 15:51 46.76076 23.57713 4172 ft 237 kts 253°
2026-04-26 15:52 46.75553 23.55557 4076 ft 227 kts 262°
2026-04-26 15:52 46.75356 23.53242 3548 ft 232 kts 276°
2026-04-26 15:52 46.75370 23.50814 3548 ft 249 kts 275°
2026-04-26 15:52 46.75358 23.49133 4202 ft 249 kts 274°
2026-04-26 15:53 46.75309 23.45739 5688 ft 252 kts 274°
2026-04-26 15:53 46.75260 23.43192 6812 ft 252 kts 274°
2026-04-26 15:53 46.75203 23.40631 7822 ft 254 kts 274°
2026-04-26 15:53 46.75141 23.38036 8806 ft 258 kts 274°
2026-04-26 15:54 46.75075 23.35403 9746 ft 262 kts 274°
2026-04-26 15:54 46.75005 23.32725 10590 ft 269 kts 274°
2026-04-26 15:54 46.74934 23.29904 11037 ft 289 kts 274°
2026-04-26 15:54 46.74855 23.26896 11528 ft 305 kts 274°
2026-04-26 15:55 46.74768 23.23759 12202 ft 311 kts 274°
2026-04-26 15:55 46.74681 23.20602 13053 ft 314 kts 274°
2026-04-26 15:55 46.74594 23.17394 13833 ft 318 kts 275°
2026-04-26 15:55 46.74503 23.14160 14557 ft 322 kts 275°
2026-04-26 15:56 46.74412 23.10871 15002 ft 327 kts 275°
2026-04-26 15:56 46.74317 23.07570 15090 ft 325 kts 275°
2026-04-26 15:56 46.74387 23.04309 15284 ft 318 kts 289°
2026-04-26 15:56 46.75237 23.01432 16095 ft 308 kts 303°
2026-04-26 15:57 46.76313 22.98743 16652 ft 315 kts 304°
2026-04-26 15:57 46.77452 22.96002 17356 ft 316 kts 304°
2026-04-26 15:57 46.78618 22.93258 17938 ft 322 kts 305°
2026-04-26 15:57 46.79424 22.91382 18371 ft 324 kts 305°
2026-04-26 15:58 46.81025 22.87689 19145 ft 328 kts 305°
2026-04-26 15:58 46.82255 22.84870 19712 ft 330 kts 305°
2026-04-26 15:58 46.83494 22.82036 20239 ft 333 kts 305°
2026-04-26 15:58 46.84746 22.79178 20788 ft 336 kts 304°
2026-04-26 15:59 46.86011 22.76285 21300 ft 339 kts 304°
2026-04-26 15:59 46.87285 22.73369 21850 ft 342 kts 304°
2026-04-26 15:59 46.88569 22.70427 22387 ft 345 kts 304°
2026-04-26 15:59 46.89863 22.67460 22894 ft 347 kts 304°
2026-04-26 16:00 46.91163 22.64474 23411 ft 350 kts 304°
2026-04-26 16:00 46.92476 22.61455 23849 ft 354 kts 304°
2026-04-26 16:00 46.93805 22.58396 24225 ft 357 kts 304°
2026-04-26 16:00 46.95140 22.55322 24657 ft 359 kts 304°
2026-04-26 16:01 46.96484 22.52223 25065 ft 362 kts 304°
2026-04-26 16:01 46.97834 22.49107 25470 ft 364 kts 304°
2026-04-26 16:01 46.99194 22.45962 25878 ft 366 kts 304°
2026-04-26 16:01 47.00559 22.42804 26270 ft 368 kts 303°
2026-04-26 16:02 47.01932 22.39623 26679 ft 370 kts 303°
2026-04-26 16:02 47.03310 22.36426 27058 ft 373 kts 303°
2026-04-26 16:02 47.04701 22.33196 27445 ft 375 kts 303°
2026-04-26 16:02 47.05623 22.31054 27671 ft 376 kts 303°
2026-04-26 16:03 47.07502 22.26682 28066 ft 382 kts 303°
2026-04-26 16:03 47.08918 22.23382 28427 ft 383 kts 303°
2026-04-26 16:03 47.10343 22.20059 28777 ft 386 kts 303°
2026-04-26 16:03 47.11773 22.16717 29099 ft 388 kts 303°
2026-04-26 16:04 47.13209 22.13357 29504 ft 389 kts 303°
2026-04-26 16:04 47.14645 22.09994 29948 ft 389 kts 302°
2026-04-26 16:04 47.16086 22.06616 30218 ft 392 kts 302°
2026-04-26 16:04 47.17536 22.03214 30511 ft 393 kts 302°
2026-04-26 16:05 47.18990 21.99797 30755 ft 396 kts 302°
2026-04-26 16:05 47.20452 21.96354 31003 ft 398 kts 302°
2026-04-26 16:05 47.21926 21.92883 31128 ft 402 kts 302°
2026-04-26 16:06 47.24864 21.85890 31132 ft 402 kts 299°
2026-04-26 16:06 47.26094 21.82257 31467 ft 401 kts 297°
2026-04-26 16:06 47.27358 21.78597 31762 ft 402 kts 298°
2026-04-26 16:06 47.28637 21.74940 32076 ft 402 kts 298°
2026-04-26 16:07 47.29922 21.71291 32401 ft 401 kts 298°
2026-04-26 16:07 47.31210 21.67640 32728 ft 402 kts 298°
2026-04-26 16:07 47.32496 21.63988 33037 ft 401 kts 298°
2026-04-26 16:07 47.33782 21.60333 33353 ft 401 kts 298°
2026-04-26 16:08 47.35064 21.56684 33668 ft 401 kts 298°
2026-04-26 16:08 47.35930 21.54216 33881 ft 401 kts 298°
2026-04-26 16:08 47.37193 21.50614 34178 ft 401 kts 298°
2026-04-26 16:08 47.38470 21.46964 34435 ft 400 kts 298°
2026-04-26 16:09 47.39746 21.43313 34696 ft 400 kts 297°
2026-04-26 16:09 47.41020 21.39664 34965 ft 400 kts 297°
2026-04-26 16:09 47.42289 21.36021 35218 ft 399 kts 297°
2026-04-26 16:09 47.43558 21.32377 35466 ft 399 kts 297°
2026-04-26 16:10 47.44824 21.28733 35699 ft 398 kts 297°
2026-04-26 16:10 47.46088 21.25093 35901 ft 399 kts 297°
2026-04-26 16:10 47.47352 21.21445 36082 ft 399 kts 297°
2026-04-26 16:10 47.48617 21.17790 36303 ft 399 kts 296°
2026-04-26 16:11 47.49878 21.14143 36517 ft 398 kts 296°
2026-04-26 16:11 47.51137 21.10495 36712 ft 398 kts 296°
2026-04-26 16:11 47.52392 21.06852 36923 ft 398 kts 296°
2026-04-26 16:11 47.53650 21.03200 37112 ft 397 kts 296°
2026-04-26 16:12 47.54901 20.99559 37304 ft 397 kts 296°
2026-04-26 16:12 47.56150 20.95920 37482 ft 397 kts 296°
2026-04-26 16:12 47.58646 20.88634 37819 ft 396 kts 295°
2026-04-26 16:13 47.59889 20.84998 37972 ft 396 kts 295°
2026-04-26 16:13 47.61129 20.81363 38153 ft 395 kts 296°
2026-04-26 16:13 47.63598 20.74116 38120 ft 391 kts 296°
2026-04-26 16:14 47.66046 20.66906 38139 ft 392 kts 296°
2026-04-26 16:15 47.69718 20.56058 38119 ft 392 kts 296°
2026-04-26 16:15 47.72171 20.48786 38146 ft 396 kts 296°
2026-04-26 16:16 47.75857 20.37821 38133 ft 395 kts 296°
2026-04-26 16:16 47.78308 20.30500 38132 ft 396 kts 296°
2026-04-26 16:17 47.80756 20.23170 38137 ft 396 kts 295°
2026-04-26 16:17 47.83195 20.15846 38141 ft 395 kts 296°
2026-04-26 16:18 47.86827 20.04900 38138 ft 395 kts 295°
2026-04-26 16:19 47.90466 19.93886 38140 ft 395 kts 295°
2026-04-26 16:20 47.94091 19.82865 38141 ft 395 kts 295°
2026-04-26 16:20 47.97712 19.71813 38145 ft 395 kts 295°
2026-04-26 16:21 48.00116 19.64447 38156 ft 395 kts 295°
2026-04-26 16:21 48.02521 19.57063 38139 ft 395 kts 295°
2026-04-26 16:22 48.04919 19.49681 38145 ft 395 kts 295°
2026-04-26 16:22 48.07315 19.42282 38169 ft 396 kts 295°
2026-04-26 16:23 48.09797 19.34917 38194 ft 396 kts 298°
2026-04-26 16:23 48.12431 19.27689 38145 ft 394 kts 297°
2026-04-26 16:24 48.15028 19.20471 38173 ft 395 kts 297°
2026-04-26 16:24 48.17622 19.13232 38171 ft 394 kts 297°
2026-04-26 16:25 48.20217 19.05971 38187 ft 397 kts 297°
2026-04-26 16:25 48.22822 18.98659 38179 ft 397 kts 297°
2026-04-26 16:26 48.24982 18.92584 38180 ft 397 kts 297°
2026-04-26 16:26 48.28014 18.84029 38189 ft 397 kts 297°
2026-04-26 16:27 48.30601 18.76705 38185 ft 397 kts 296°
2026-04-26 16:27 48.33195 18.69346 38205 ft 400 kts 296°
2026-04-26 16:28 48.35794 18.61949 38194 ft 400 kts 296°
2026-04-26 16:28 48.38386 18.54550 38191 ft 399 kts 296°
2026-04-26 16:29 48.40971 18.47150 38195 ft 400 kts 296°
2026-04-26 16:29 48.43553 18.39739 38184 ft 400 kts 296°
2026-04-26 16:30 48.46138 18.32297 38206 ft 402 kts 296°
2026-04-26 16:30 48.48726 18.24825 38228 ft 402 kts 296°
2026-04-26 16:31 48.51307 18.17352 38219 ft 402 kts 296°
2026-04-26 16:31 48.53886 18.09866 38207 ft 401 kts 296°
2026-04-26 16:32 48.56020 18.03652 38204 ft 401 kts 296°
2026-04-26 16:32 48.59001 17.94945 38214 ft 402 kts 296°
2026-04-26 16:33 48.61566 17.87433 38208 ft 402 kts 296°
2026-04-26 16:33 48.64126 17.79913 38212 ft 402 kts 296°
2026-04-26 16:34 48.66680 17.72387 38214 ft 402 kts 295°
2026-04-26 16:34 48.69228 17.64858 38221 ft 402 kts 296°
2026-04-26 16:35 48.71777 17.57303 38218 ft 403 kts 295°
2026-04-26 16:35 48.74323 17.49735 38217 ft 403 kts 295°
2026-04-26 16:36 48.76862 17.42164 38219 ft 403 kts 295°
2026-04-26 16:36 48.79400 17.34582 38218 ft 403 kts 295°
2026-04-26 16:37 48.81931 17.26998 38218 ft 403 kts 295°
2026-04-26 16:37 48.84456 17.19410 38219 ft 403 kts 295°
2026-04-26 16:38 48.87099 17.11904 38228 ft 403 kts 297°
2026-04-26 16:38 48.89763 17.04401 38224 ft 403 kts 297°
2026-04-26 16:39 48.92415 16.96900 38227 ft 403 kts 297°
2026-04-26 16:39 48.95064 16.89382 38241 ft 403 kts 296°
2026-04-26 16:40 48.97715 16.81837 38239 ft 404 kts 296°
2026-04-26 16:40 49.00363 16.74280 38236 ft 404 kts 296°
2026-04-26 16:41 49.02984 16.66774 38236 ft 404 kts 296°
2026-04-26 16:41 49.05624 16.59197 38237 ft 405 kts 296°
2026-04-26 16:42 49.08255 16.51622 38238 ft 405 kts 296°
2026-04-26 16:42 49.10892 16.44005 38242 ft 407 kts 296°
2026-04-26 16:43 49.13526 16.36376 38242 ft 406 kts 296°
2026-04-26 16:43 49.16156 16.28734 38239 ft 406 kts 296°
2026-04-26 16:44 49.18780 16.21089 38242 ft 406 kts 296°
2026-04-26 16:44 49.21398 16.13438 38230 ft 406 kts 296°
2026-04-26 16:45 49.24018 16.05756 38246 ft 408 kts 296°
2026-04-26 16:45 49.26639 15.98051 38238 ft 408 kts 296°
2026-04-26 16:46 49.29254 15.90340 38241 ft 408 kts 296°
2026-04-26 16:46 49.31863 15.82622 38240 ft 408 kts 296°
2026-04-26 16:47 49.34467 15.74898 38277 ft 408 kts 296°
2026-04-26 16:47 49.37054 15.67197 38245 ft 404 kts 296°
2026-04-26 16:48 49.39632 15.59503 38242 ft 406 kts 296°
2026-04-26 16:48 49.42205 15.51796 38240 ft 405 kts 296°
2026-04-26 16:49 49.44772 15.44087 38242 ft 405 kts 296°
2026-04-26 16:49 49.47337 15.36362 38232 ft 405 kts 296°
2026-04-26 16:50 49.49899 15.28620 38253 ft 407 kts 296°
2026-04-26 16:50 49.52458 15.20864 38252 ft 406 kts 296°
2026-04-26 16:51 49.55012 15.13099 38248 ft 406 kts 296°
2026-04-26 16:51 49.57561 15.05324 38246 ft 406 kts 295°
2026-04-26 16:52 49.59245 15.00176 38243 ft 406 kts 295°
2026-04-26 16:52 49.62646 14.89744 38254 ft 408 kts 295°
2026-04-26 16:53 49.65169 14.81978 38249 ft 407 kts 295°
2026-04-26 16:53 49.67703 14.74156 38247 ft 407 kts 295°
2026-04-26 16:54 49.70232 14.66322 38246 ft 407 kts 295°
2026-04-26 16:54 49.72754 14.58486 38259 ft 407 kts 295°
2026-04-26 16:55 49.75270 14.50643 38240 ft 406 kts 295°
2026-04-26 16:55 49.77774 14.42814 38247 ft 407 kts 295°
2026-04-26 16:56 49.81103 14.32370 38255 ft 406 kts 295°
2026-04-26 16:57 49.83603 14.24505 38248 ft 406 kts 295°
2026-04-26 16:57 49.87337 14.12711 38265 ft 407 kts 295°
2026-04-26 16:58 49.89412 14.06136 38240 ft 408 kts 295°
2026-04-26 16:59 49.93971 13.93247 38247 ft 409 kts 298°
2026-04-26 17:00 49.99472 13.77815 38268 ft 408 kts 298°
2026-04-26 17:00 50.03602 13.66161 38264 ft 412 kts 298°
2026-04-26 17:01 50.06355 13.58361 38251 ft 411 kts 298°
2026-04-26 17:01 50.09106 13.50546 38273 ft 412 kts 298°
2026-04-26 17:02 50.11847 13.42734 38249 ft 410 kts 298°
2026-04-26 17:02 50.14575 13.34936 38254 ft 410 kts 298°
2026-04-26 17:03 50.17304 13.27111 38250 ft 410 kts 297°
2026-04-26 17:03 50.20024 13.19290 38251 ft 410 kts 297°
2026-04-26 17:04 50.22738 13.11460 38241 ft 410 kts 297°
2026-04-26 17:04 50.25448 13.03617 38236 ft 410 kts 297°
2026-04-26 17:05 50.28154 12.95763 38234 ft 410 kts 297°
2026-04-26 17:05 50.30853 12.87903 38241 ft 411 kts 297°
2026-04-26 17:06 50.33532 12.80077 38245 ft 411 kts 297°
2026-04-26 17:06 50.36226 12.72189 38249 ft 411 kts 297°
2026-04-26 17:07 50.38920 12.64302 38256 ft 411 kts 299°
2026-04-26 17:07 50.41941 12.56715 38304 ft 411 kts 301°
2026-04-26 17:08 50.44946 12.49058 38266 ft 412 kts 301°
2026-04-26 17:08 50.47935 12.41388 38267 ft 412 kts 301°
2026-04-26 17:09 50.50419 12.35002 38274 ft 412 kts 301°
2026-04-26 17:09 50.53904 12.26011 38272 ft 412 kts 300°
2026-04-26 17:10 50.56882 12.18301 38275 ft 412 kts 300°
2026-04-26 17:10 50.59852 12.10592 38275 ft 413 kts 300°
2026-04-26 17:11 50.62826 12.02849 38280 ft 413 kts 300°
2026-04-26 17:11 50.65793 11.95102 38277 ft 413 kts 300°
2026-04-26 17:12 50.70216 11.83509 38275 ft 413 kts 300°
2026-04-26 17:13 50.74662 11.71800 38284 ft 413 kts 300°
2026-04-26 17:14 50.79059 11.60174 38290 ft 412 kts 300°
2026-04-26 17:14 50.83461 11.48477 38286 ft 413 kts 300°
2026-04-26 17:15 50.87852 11.36756 38274 ft 412 kts 300°
2026-04-26 17:16 50.90769 11.28941 38277 ft 413 kts 300°
2026-04-26 17:16 50.93685 11.21104 38286 ft 413 kts 300°
2026-04-26 17:17 50.96596 11.13258 38287 ft 413 kts 300°
2026-04-26 17:17 50.99500 11.05404 38287 ft 413 kts 300°
2026-04-26 17:18 51.02402 10.97536 38287 ft 413 kts 300°
2026-04-26 17:18 51.05296 10.89662 38282 ft 413 kts 300°
2026-04-26 17:19 51.09605 10.77896 38286 ft 412 kts 300°
2026-04-26 17:19 51.12499 10.69960 38285 ft 412 kts 300°
2026-04-26 17:20 51.14885 10.63401 38279 ft 412 kts 300°
2026-04-26 17:20 51.18237 10.54161 38273 ft 412 kts 300°
2026-04-26 17:21 51.21082 10.46296 38270 ft 412 kts 300°
2026-04-26 17:21 51.23939 10.38374 38272 ft 412 kts 300°
2026-04-26 17:22 51.26444 10.30181 38301 ft 409 kts 293°
2026-04-26 17:22 51.28706 10.21807 38262 ft 412 kts 294°
2026-04-26 17:23 51.30967 10.13418 38276 ft 412 kts 294°
2026-04-26 17:23 51.33228 10.04993 38263 ft 412 kts 294°
2026-04-26 17:24 51.35478 9.96576 38267 ft 412 kts 294°
2026-04-26 17:24 51.37722 9.88153 38265 ft 412 kts 294°
2026-04-26 17:25 51.39959 9.79725 38285 ft 412 kts 293°
2026-04-26 17:25 51.42190 9.71288 38265 ft 411 kts 293°
2026-04-26 17:26 51.44413 9.62854 38271 ft 411 kts 293°
2026-04-26 17:26 51.46627 9.54417 38274 ft 411 kts 293°
2026-04-26 17:27 51.48842 9.45949 38132 ft 413 kts 293°
2026-04-26 17:27 51.49932 9.41768 37770 ft 410 kts 293°
2026-04-26 17:27 51.51031 9.37548 37391 ft 409 kts 293°
2026-04-26 17:28 51.52125 9.33335 37241 ft 409 kts 293°
2026-04-26 17:28 51.53220 9.29114 37272 ft 411 kts 293°
2026-04-26 17:28 51.55421 9.20603 37260 ft 412 kts 293°
2026-04-26 17:29 51.57259 9.13475 37268 ft 412 kts 293°
2026-04-26 17:29 51.59804 9.03562 37270 ft 412 kts 293°
2026-04-26 17:30 51.61983 8.95038 37270 ft 412 kts 293°
2026-04-26 17:30 51.64159 8.86498 37265 ft 412 kts 293°
2026-04-26 17:31 51.66327 8.77956 37267 ft 412 kts 293°
2026-04-26 17:31 51.68503 8.69345 37259 ft 412 kts 293°
2026-04-26 17:32 51.70639 8.60863 37292 ft 410 kts 293°
2026-04-26 17:32 51.71706 8.56616 37605 ft 406 kts 293°
2026-04-26 17:32 51.72757 8.52421 37969 ft 401 kts 293°
2026-04-26 17:33 51.73791 8.48287 38296 ft 396 kts 293°
2026-04-26 17:33 51.74825 8.44151 38311 ft 399 kts 293°
2026-04-26 17:34 51.77955 8.31568 38277 ft 406 kts 293°
2026-04-26 17:34 51.80059 8.23070 38273 ft 409 kts 293°
2026-04-26 17:35 51.82162 8.14541 38283 ft 408 kts 293°
2026-04-26 17:35 51.84259 8.06006 38278 ft 408 kts 293°
2026-04-26 17:36 51.86348 7.97471 38284 ft 408 kts 293°
2026-04-26 17:36 51.88431 7.88925 38279 ft 408 kts 293°
2026-04-26 17:37 51.90509 7.80368 38263 ft 408 kts 293°
2026-04-26 17:37 51.92580 7.71806 38283 ft 409 kts 293°
2026-04-26 17:38 51.95672 7.58961 38266 ft 408 kts 292°
2026-04-26 17:38 51.97725 7.50386 38282 ft 409 kts 292°
2026-04-26 17:39 51.99774 7.41800 38297 ft 408 kts 292°
2026-04-26 17:39 52.01815 7.33206 38284 ft 408 kts 292°
2026-04-26 17:40 52.03180 7.27445 38276 ft 408 kts 292°
2026-04-26 17:40 52.05884 7.15984 38278 ft 408 kts 292°
2026-04-26 17:41 52.07906 7.07368 38296 ft 408 kts 292°
2026-04-26 17:41 52.09922 6.98751 38296 ft 407 kts 292°
2026-04-26 17:42 52.11592 6.91582 38272 ft 407 kts 292°
2026-04-26 17:42 52.13595 6.82953 38280 ft 408 kts 292°
2026-04-26 17:43 52.15592 6.74317 38275 ft 408 kts 292°
2026-04-26 17:43 52.17582 6.65671 38286 ft 408 kts 292°
2026-04-26 17:44 52.19568 6.57011 38282 ft 408 kts 292°
2026-04-26 17:44 52.21544 6.48359 38291 ft 408 kts 292°
2026-04-26 17:45 52.23516 6.39687 38280 ft 408 kts 291°
2026-04-26 17:45 52.25484 6.31002 38293 ft 408 kts 291°
2026-04-26 17:46 52.27445 6.22309 38294 ft 408 kts 291°
2026-04-26 17:46 52.29398 6.13614 38297 ft 408 kts 291°
2026-04-26 17:47 52.31019 6.06372 38294 ft 408 kts 291°
2026-04-26 17:47 52.33294 5.96161 38294 ft 408 kts 291°
2026-04-26 17:48 52.35226 5.87455 38296 ft 408 kts 291°
2026-04-26 17:48 52.37142 5.78781 38300 ft 408 kts 291°
2026-04-26 17:49 52.39065 5.70042 38320 ft 408 kts 290°
2026-04-26 17:49 52.40980 5.61300 38323 ft 408 kts 290°
2026-04-26 17:50 52.42890 5.52543 38321 ft 408 kts 290°
2026-04-26 17:50 52.44791 5.43789 38306 ft 408 kts 290°
2026-04-26 17:51 52.46690 5.35011 38318 ft 409 kts 290°
2026-04-26 17:51 52.48580 5.26234 38321 ft 408 kts 290°
2026-04-26 17:52 52.50466 5.17439 38323 ft 408 kts 290°
2026-04-26 17:52 52.52345 5.08639 38321 ft 408 kts 290°
2026-04-26 17:53 52.54217 4.99831 38318 ft 408 kts 290°
2026-04-26 17:54 52.57015 4.86598 38327 ft 409 kts 289°
2026-04-26 17:54 52.58876 4.77750 38329 ft 409 kts 289°
2026-04-26 17:55 52.60728 4.68902 38330 ft 409 kts 289°
2026-04-26 17:55 52.62575 4.60041 38327 ft 409 kts 289°
2026-04-26 17:56 52.64415 4.51175 38325 ft 409 kts 289°
2026-04-26 17:57 52.68073 4.33428 38330 ft 409 kts 289°
2026-04-26 17:57 52.69882 4.24590 38344 ft 409 kts 289°
2026-04-26 17:58 52.73509 4.06759 38328 ft 409 kts 289°
2026-04-26 17:59 52.76192 3.93464 38339 ft 409 kts 289°
2026-04-26 17:59 52.77985 3.84534 38331 ft 409 kts 289°
2026-04-26 18:00 52.79772 3.75600 38332 ft 409 kts 288°
2026-04-26 18:00 52.81551 3.66668 38329 ft 409 kts 288°
2026-04-26 18:01 52.83326 3.57723 38327 ft 410 kts 288°
2026-04-26 18:01 52.85093 3.48774 38321 ft 410 kts 288°
2026-04-26 18:02 52.86572 3.41250 38337 ft 411 kts 288°
2026-04-26 18:02 52.88619 3.30798 38335 ft 411 kts 288°
2026-04-26 18:03 52.90373 3.21795 38336 ft 411 kts 288°
2026-04-26 18:03 52.91960 3.12708 38309 ft 411 kts 280°
2026-04-26 18:04 52.93077 3.03439 38322 ft 411 kts 283°
2026-04-26 18:05 52.94915 2.89534 38330 ft 412 kts 283°
2026-04-26 18:05 52.96141 2.80248 38332 ft 412 kts 283°
2026-04-26 18:06 52.97360 2.70962 38329 ft 412 kts 283°
2026-04-26 18:06 52.98572 2.61667 38336 ft 412 kts 282°
2026-04-26 18:07 52.99771 2.52408 38318 ft 410 kts 282°
2026-04-26 18:07 53.00967 2.43121 38328 ft 412 kts 282°
2026-04-26 18:08 53.02158 2.33807 38328 ft 412 kts 282°
2026-04-26 18:08 53.03339 2.24502 38327 ft 412 kts 282°
2026-04-26 18:09 53.04515 2.15190 38324 ft 412 kts 282°
2026-04-26 18:09 53.05673 2.05869 38329 ft 412 kts 282°
2026-04-26 18:10 53.06818 1.96540 38329 ft 412 kts 281°
2026-04-26 18:10 53.07959 1.87187 38320 ft 412 kts 281°
2026-04-26 18:11 53.09091 1.77835 38315 ft 412 kts 281°
2026-04-26 18:11 53.10217 1.68479 38315 ft 412 kts 281°
2026-04-26 18:12 53.11326 1.59185 38314 ft 412 kts 281°
2026-04-26 18:12 53.12437 1.49812 38312 ft 413 kts 281°
2026-04-26 18:13 53.13541 1.40446 38309 ft 412 kts 281°
2026-04-26 18:13 53.14636 1.31076 38314 ft 412 kts 281°
2026-04-26 18:14 53.15725 1.21696 38312 ft 412 kts 281°
2026-04-26 18:14 53.16806 1.12314 38308 ft 412 kts 280°
2026-04-26 18:15 53.17879 1.02930 38301 ft 412 kts 280°
2026-04-26 18:15 53.18944 0.93545 38296 ft 412 kts 280°
2026-04-26 18:16 53.20001 0.84166 38300 ft 412 kts 280°
2026-04-26 18:16 53.21573 0.70095 38293 ft 412 kts 280°
2026-04-26 18:17 53.22615 0.60699 38292 ft 411 kts 279°
2026-04-26 18:17 53.23642 0.51309 38292 ft 411 kts 279°
2026-04-26 18:18 53.24665 0.41902 38291 ft 412 kts 279°
2026-04-26 18:18 53.25682 0.32494 38302 ft 411 kts 279°
2026-04-26 18:19 53.26689 0.23104 38293 ft 410 kts 279°
2026-04-26 18:19 53.27689 0.13694 38290 ft 410 kts 279°
2026-04-26 18:20 53.28672 0.04383 38293 ft 411 kts 279°
2026-04-26 18:20 53.29330 -0.01902 38294 ft 411 kts 279°
2026-04-26 18:21 53.30633 -0.14429 38294 ft 411 kts 278°
2026-04-26 18:21 53.31602 -0.23839 38291 ft 411 kts 278°
2026-04-26 18:22 53.32564 -0.33260 38276 ft 411 kts 278°
2026-04-26 18:22 53.33519 -0.42676 38270 ft 411 kts 278°
2026-04-26 18:23 53.34466 -0.52108 38269 ft 411 kts 278°
2026-04-26 18:23 53.35406 -0.61540 38272 ft 411 kts 278°
2026-04-26 18:24 53.36338 -0.70967 38268 ft 411 kts 278°
2026-04-26 18:24 53.37265 -0.80412 38272 ft 411 kts 278°
2026-04-26 18:25 53.38183 -0.89851 38268 ft 411 kts 278°
2026-04-26 18:25 53.39094 -0.99302 38264 ft 411 kts 278°
2026-04-26 18:26 53.39997 -1.08755 38262 ft 411 kts 277°
2026-04-26 18:26 53.40895 -1.18229 38260 ft 412 kts 277°
2026-04-26 18:27 53.41784 -1.27702 38264 ft 411 kts 277°
2026-04-26 18:27 53.42665 -1.37179 38263 ft 412 kts 277°
2026-04-26 18:28 53.43538 -1.46656 38263 ft 411 kts 277°
2026-04-26 18:28 53.44259 -1.54540 38276 ft 411 kts 277°
2026-04-26 18:29 53.45120 -1.64030 38270 ft 411 kts 277°
2026-04-26 18:29 53.45973 -1.73528 38250 ft 412 kts 277°
2026-04-26 18:30 53.46819 -1.83029 38255 ft 412 kts 277°
2026-04-26 18:30 53.47657 -1.92533 38258 ft 412 kts 277°
2026-04-26 18:31 53.48486 -2.02029 38266 ft 412 kts 276°
2026-04-26 18:31 53.49309 -2.11547 38259 ft 412 kts 276°
2026-04-26 18:32 53.50126 -2.21071 38269 ft 412 kts 276°
2026-04-26 18:32 53.50934 -2.30597 38269 ft 412 kts 276°
2026-04-26 18:33 53.51735 -2.40136 38268 ft 412 kts 276°
2026-04-26 18:33 53.52528 -2.49668 38264 ft 412 kts 276°
2026-04-26 18:34 53.53314 -2.59212 38265 ft 412 kts 276°
2026-04-26 18:34 53.54088 -2.68705 38256 ft 413 kts 276°
2026-04-26 18:35 53.54861 -2.78277 38261 ft 413 kts 275°
2026-04-26 18:35 53.55626 -2.87855 38253 ft 413 kts 275°
2026-04-26 18:36 53.56383 -2.97431 38265 ft 413 kts 275°
2026-04-26 18:36 53.57132 -3.07013 38268 ft 413 kts 275°
2026-04-26 18:37 53.57875 -3.16603 38270 ft 414 kts 275°
2026-04-26 18:37 53.58613 -3.26239 38266 ft 415 kts 275°
2026-04-26 18:38 53.59342 -3.35873 38257 ft 415 kts 275°
2026-04-26 18:38 53.60064 -3.45507 38262 ft 415 kts 275°
2026-04-26 18:39 53.60779 -3.55142 38270 ft 415 kts 275°
2026-04-26 18:39 53.61514 -3.64782 38262 ft 416 kts 279°
2026-04-26 18:40 53.62402 -3.69448 38187 ft 421 kts 291°
2026-04-26 18:40 53.63525 -3.73972 38366 ft 418 kts 288°
2026-04-26 18:40 53.64579 -3.78583 38194 ft 423 kts 288°
2026-04-26 18:40 53.65655 -3.83198 38258 ft 424 kts 289°
2026-04-26 18:41 53.67851 -3.92476 38272 ft 428 kts 289°
2026-04-26 18:41 53.70065 -4.01811 37786 ft 428 kts 289°
2026-04-26 18:42 53.71156 -4.06511 36821 ft 432 kts 285°
2026-04-26 18:42 53.71748 -4.11448 35988 ft 427 kts 269°
2026-04-26 18:42 53.71853 -4.16374 35761 ft 416 kts 272°
2026-04-26 18:42 53.72088 -4.21189 35496 ft 406 kts 271°
2026-04-26 18:43 53.72297 -4.25889 35201 ft 398 kts 271°
2026-04-26 18:43 53.72486 -4.30529 34777 ft 394 kts 270°
2026-04-26 18:43 53.72660 -4.35119 34358 ft 390 kts 270°
2026-04-26 18:43 53.72828 -4.39670 33869 ft 386 kts 270°
2026-04-26 18:44 53.72991 -4.44182 33345 ft 384 kts 270°
2026-04-26 18:44 53.73151 -4.48668 32819 ft 382 kts 270°
2026-04-26 18:44 53.73309 -4.53136 32309 ft 380 kts 270°
2026-04-26 18:44 53.73465 -4.57582 31821 ft 378 kts 270°
2026-04-26 18:45 53.73618 -4.62001 31331 ft 376 kts 270°
2026-04-26 18:45 53.73769 -4.66400 30864 ft 374 kts 270°
2026-04-26 18:45 53.73917 -4.70783 30401 ft 373 kts 270°
2026-04-26 18:45 53.74064 -4.75143 29923 ft 370 kts 270°
2026-04-26 18:46 53.74207 -4.79467 29423 ft 368 kts 270°
2026-04-26 18:46 53.74350 -4.83774 28949 ft 366 kts 271°
2026-04-26 18:46 53.74490 -4.88053 28474 ft 364 kts 271°
2026-04-26 18:46 53.74629 -4.92310 28031 ft 362 kts 271°
2026-04-26 18:47 53.74765 -4.96543 27571 ft 360 kts 271°
2026-04-26 18:47 53.74899 -5.00752 27145 ft 358 kts 271°
2026-04-26 18:47 53.75030 -5.04944 26699 ft 357 kts 272°
2026-04-26 18:47 53.75160 -5.09117 26298 ft 355 kts 272°
2026-04-26 18:48 53.75220 -5.13269 25866 ft 353 kts 264°
2026-04-26 18:48 53.74636 -5.17213 25472 ft 349 kts 249°
2026-04-26 18:48 53.73820 -5.21063 25046 ft 349 kts 252°
2026-04-26 18:48 53.73066 -5.24963 24619 ft 349 kts 253°
2026-04-26 18:49 53.72301 -5.28831 24246 ft 347 kts 253°
2026-04-26 18:49 53.71527 -5.32693 23869 ft 346 kts 253°
2026-04-26 18:49 53.70749 -5.36533 23413 ft 345 kts 253°
2026-04-26 18:49 53.69973 -5.40344 23019 ft 343 kts 253°
2026-04-26 18:50 53.69196 -5.44151 22502 ft 344 kts 252°
2026-04-26 18:50 53.68412 -5.48011 21831 ft 351 kts 254°
2026-04-26 18:50 53.68015 -5.52038 21143 ft 347 kts 273°
2026-04-26 18:50 53.68172 -5.56063 20557 ft 342 kts 274°
2026-04-26 18:51 53.68275 -5.60050 19958 ft 338 kts 274°
2026-04-26 18:51 53.68253 -5.63995 19341 ft 337 kts 261°
2026-04-26 18:51 53.67430 -5.67665 18770 ft 337 kts 238°
2026-04-26 18:51 53.65845 -5.70559 18115 ft 338 kts 218°
2026-04-26 18:52 53.63729 -5.72251 17435 ft 340 kts 194°
2026-04-26 18:52 53.62173 -5.72525 16999 ft 341 kts 178°
2026-04-26 18:52 53.59165 -5.71003 16107 ft 341 kts 147°
2026-04-26 18:52 53.57442 -5.68313 15458 ft 340 kts 124°
2026-04-26 18:53 53.56433 -5.64752 14839 ft 337 kts 110°
2026-04-26 18:53 53.55369 -5.61279 14188 ft 335 kts 131°
2026-04-26 18:53 53.53517 -5.58992 13471 ft 331 kts 158°
2026-04-26 18:53 53.51420 -5.57440 12850 ft 328 kts 153°
2026-04-26 18:54 53.49416 -5.55613 12194 ft 326 kts 156°
2026-04-26 18:54 53.47256 -5.54655 11517 ft 321 kts 177°
2026-04-26 18:54 53.45044 -5.54219 10929 ft 319 kts 173°
2026-04-26 18:54 53.42856 -5.53656 10321 ft 317 kts 173°
2026-04-26 18:55 53.40681 -5.53079 9678 ft 315 kts 173°
2026-04-26 18:55 53.38520 -5.53119 8972 ft 310 kts 194°
2026-04-26 18:55 53.36452 -5.53992 8380 ft 306 kts 194°
2026-04-26 18:55 53.34376 -5.54789 7756 ft 305 kts 194°
2026-04-26 18:56 53.32311 -5.55568 7144 ft 303 kts 194°
2026-04-26 18:56 53.30314 -5.56451 6640 ft 296 kts 206°
2026-04-26 18:56 53.28614 -5.58253 6447 ft 277 kts 216°
2026-04-26 18:56 53.27061 -5.60008 6325 ft 271 kts 215°
2026-04-26 18:57 53.25564 -5.61955 6185 ft 267 kts 232°
2026-04-26 18:57 53.24998 -5.63726 6084 ft 258 kts 257°
2026-04-26 18:57 53.25308 -5.67459 5982 ft 240 kts 299°
2026-04-26 18:57 53.26274 -5.69640 5920 ft 232 kts 309°
2026-04-26 18:58 53.27334 -5.71685 5879 ft 233 kts 311°
2026-04-26 18:58 53.28405 -5.73674 5828 ft 234 kts 312°
2026-04-26 18:58 53.29510 -5.75672 5774 ft 234 kts 312°
2026-04-26 18:58 53.30619 -5.77649 5735 ft 232 kts 312°
2026-04-26 18:59 53.31731 -5.79612 5649 ft 233 kts 313°
2026-04-26 18:59 53.32848 -5.81571 5416 ft 233 kts 313°
2026-04-26 18:59 53.33969 -5.83529 5175 ft 232 kts 313°
2026-04-26 18:59 53.35082 -5.85465 4932 ft 230 kts 313°
2026-04-26 19:00 53.36191 -5.87396 4696 ft 229 kts 314°
2026-04-26 19:00 53.37297 -5.89309 4433 ft 229 kts 314°
2026-04-26 19:00 53.38390 -5.91207 4110 ft 225 kts 314°
2026-04-26 19:00 53.39466 -5.93083 3732 ft 222 kts 313°
2026-04-26 19:01 53.40217 -5.95320 3248 ft 223 kts 283°
2026-04-26 19:01 53.40417 -5.97838 3067 ft 212 kts 277°
2026-04-26 19:01 53.40578 -6.00215 2885 ft 197 kts 277°
2026-04-26 19:01 53.40724 -6.02409 2614 ft 182 kts 277°
2026-04-26 19:02 53.40855 -6.04422 2438 ft 164 kts 277°
2026-04-26 19:02 53.40966 -6.06207 2337 ft 148 kts 278°
2026-04-26 19:02 53.41076 -6.07898 2260 ft 143 kts 277°
2026-04-26 19:02 53.41143 -6.08994 2147 ft 142 kts 277°
2026-04-26 19:03 53.41270 -6.11180 1889 ft 140 kts 276°
2026-04-26 19:03 53.41359 -6.12802 1699 ft 139 kts 276°
2026-04-26 19:03 53.41448 -6.14414 1504 ft 139 kts 275°
2026-04-26 19:03 53.41536 -6.16017 1318 ft 138 kts 275°
2026-04-26 19:04 53.41623 -6.17615 1128 ft 138 kts 274°
2026-04-26 19:04 53.41710 -6.19219 931 ft 139 kts 274°
2026-04-26 19:04 53.41799 -6.20856 749 ft 144 kts 273°
2026-04-26 19:04 53.41885 -6.22542 540 ft 145 kts 273°
2026-04-26 19:05 53.42058 -6.25904 215 ft 138 kts 275°
2026-04-26 19:05 53.42137 -6.27118 219 ft 72 kts 276°
2026-04-26 19:05 53.42178 -6.27713 214 ft 34 kts 283°
2026-04-26 19:06 53.42232 -6.27941 216 ft 18 kts 299°
2026-04-26 19:06 53.42270 -6.28052 214 ft 2 kts 300°
2026-04-26 19:06 53.42279 -6.28076 214 ft 3 kts 302°
2026-04-26 19:06 53.42317 -6.28129 214 ft 12 kts 335°
2026-04-26 19:07 53.42366 -6.28071 218 ft 11 kts 102°
2026-04-26 19:07 53.42353 -6.27877 218 ft 23 kts 95°
2026-04-26 19:07 53.42337 -6.27578 217 ft 28 kts 95°
2026-04-26 19:07 53.42319 -6.27254 213 ft 27 kts 95°
2026-04-26 19:08 53.42302 -6.26943 213 ft 27 kts 95°
2026-04-26 19:08 53.42285 -6.26646 213 ft 24 kts 95°
2026-04-26 19:08 53.42269 -6.26361 213 ft 25 kts 95°
2026-04-26 19:08 53.42257 -6.26077 213 ft 22 kts 86°
2026-04-26 19:09 53.42328 -6.25856 213 ft 23 kts 46°
2026-04-26 19:09 53.42441 -6.25662 215 ft 23 kts 46°
2026-04-26 19:09 53.42534 -6.25504 213 ft 11 kts 46°
2026-04-26 19:09 53.42593 -6.25402 217 ft 13 kts 44°
2026-04-26 19:10 53.42664 -6.25283 217 ft 16 kts 45°
2026-04-26 19:10 53.42755 -6.25128 216 ft 20 kts 46°
2026-04-26 19:10 53.42846 -6.24999 216 ft 17 kts 47°
2026-04-26 19:10 53.42915 -6.24874 213 ft 10 kts 47°
2026-04-26 19:11 53.42941 -6.24777 221 ft 9 kts 86°
2026-04-26 19:11 53.42962 -6.24738 217 ft 3 kts 355°
2026-04-26 19:11 53.42993 -6.24746 217 ft 5 kts 360°
2026-04-26 19:11 53.42999 -6.24746 213 ft 0 kts